Shelton, WA

9:41 AM PDT on September 20, 2017 (GMT -0700)
Sanderson

Weather History for KSHN - June, 2013

Change the Weather History Date:

Sunday, June 16, 2013

  Actual Average Record
Temperature  
Mean Temperature 61 °F -  
Max Temperature 71 °F 69 °F 91 °F (1961)
Min Temperature 53 °F 49 °F 37 °F (2004)
Degree Days  
Heating Degree Days 4    
Growing Degree Days 11 (Base 50)    
Moisture  
Dew Point 52 °F    
Average Humidity 78    
Maximum Humidity 94    
Minimum Humidity 58    
Precipitation  
Precipitation 0.00 in - - ()
Sea Level Pressure  
Sea Level Pressure 30.05 in    
Wind  
Wind Speed 11 mph (SW)    
Max Wind Speed 18 mph    
Max Gust Speed 24 mph    
Visibility 10 miles    
Events      
Averages and records for this station are not official NWS values.
T = Trace of Precipitation, MM = Missing Value Source: NWS Daily Summary

Daily Weather History Graph

Daily Weather History Graph

Search for Another Location

Airport or City:

Trip Planner

Search our weather history database for the weather conditions in past years. The results will help you decide how hot, cold, wet, or windy it might be!

Date:

Astronomy

Jun. 16, 2013 Rise Set
Actual Time 5:15 AM PDT 9:11 PM PDT
Civil Twilight 4:35 AM PDT 9:51 PM PDT
Nautical Twilight 3:40 AM PDT 10:46 PM PDT
Astronomical Twilight 2:16 AM PDT 12:11 AM PDT
Moon 1:27 PM PDT (6/16) 12:51 AM PDT (6/16)
Length of Visible Light 17h 15m
Length of Day
15h 55m
Waxing Crescent, 51% of the Moon is Illuminated
Jun 16
Waxing Crescent
Jun 23
Full
Jun 29
Last Quarter
Jul 8
New
Jul 15
First Quarter

Hourly Weather History & Observations

Time (PDT) Temp. Dew Point Humidity Pressure Visibility Wind Dir Wind Speed Gust Speed Precip Events Conditions
12:53 AM 54.0 °F 52.0 °F 93% 30.01 in 10.0 mi WSW 11.5 mph - N/A   Clear
1:51 AM 53.6 °F 51.8 °F 94% 30.02 in 10.0 mi WSW 9.2 mph - N/A   Partly Cloudy
1:53 AM 54.0 °F 52.0 °F 93% 30.01 in 10.0 mi WSW 8.1 mph - N/A   Partly Cloudy
2:25 AM 53.6 °F 51.8 °F 94% 30.02 in 10.0 mi WSW 10.4 mph - N/A   Mostly Cloudy
2:53 AM 54.0 °F 52.0 °F 93% 30.02 in 10.0 mi WSW 12.7 mph - N/A   Overcast
3:53 AM 54.0 °F 52.0 °F 93% 30.02 in 10.0 mi WSW 11.5 mph - N/A   Overcast
4:53 AM 54.0 °F 52.0 °F 93% 30.02 in 10.0 mi WSW 9.2 mph - N/A   Overcast
5:53 AM 54.0 °F 51.1 °F 90% 30.04 in 10.0 mi WSW 9.2 mph - N/A   Mostly Cloudy
6:45 AM 55.4 °F 51.8 °F 88% 30.05 in 10.0 mi SW 9.2 mph - N/A   Overcast
6:53 AM 55.0 °F 52.0 °F 89% 30.05 in 10.0 mi SW 6.9 mph - N/A   Mostly Cloudy
7:04 AM 55.4 °F 51.8 °F 88% 30.05 in 10.0 mi WSW 9.2 mph - N/A   Scattered Clouds
7:53 AM 57.9 °F 52.0 °F 81% 30.05 in 10.0 mi WSW 12.7 mph 17.3 mph N/A   Clear
8:53 AM 60.1 °F 52.0 °F 75% 30.06 in 10.0 mi SW 12.7 mph - N/A   Scattered Clouds
9:53 AM 63.0 °F 53.1 °F 70% 30.06 in 10.0 mi SW 9.2 mph - N/A   Clear
10:53 AM 64.9 °F 52.0 °F 63% 30.06 in 10.0 mi SSW 10.4 mph - N/A   Clear
11:53 AM 68.0 °F 53.1 °F 59% 30.05 in 10.0 mi SSW 12.7 mph - N/A   Clear
12:53 PM 68.0 °F 54.0 °F 61% 30.05 in 10.0 mi WSW 12.7 mph - N/A   Clear
1:53 PM 69.1 °F 54.0 °F 58% 30.04 in 10.0 mi SW 13.8 mph - N/A   Clear
2:53 PM 68.0 °F 53.1 °F 59% 30.04 in 10.0 mi SW 15.0 mph 24.2 mph N/A   Clear
3:53 PM 66.9 °F 53.1 °F 61% 30.05 in 10.0 mi SSW 16.1 mph - N/A   Clear
4:53 PM 66.0 °F 53.1 °F 63% 30.05 in 10.0 mi SW 15.0 mph - N/A   Partly Cloudy
5:53 PM 66.9 °F 52.0 °F 59% 30.06 in 10.0 mi SW 18.4 mph 23.0 mph N/A   Scattered Clouds
6:53 PM 64.9 °F 52.0 °F 63% 30.06 in 10.0 mi SW 16.1 mph - N/A   Clear
7:53 PM 62.1 °F 51.1 °F 67% 30.07 in 10.0 mi WSW 8.1 mph - N/A   Clear
8:53 PM 59.0 °F 50.0 °F 72% 30.08 in 10.0 mi SW 9.2 mph - N/A   Clear
9:53 PM 57.0 °F 51.1 °F 81% 30.09 in 10.0 mi SW 10.4 mph - N/A   Partly Cloudy
10:53 PM 55.0 °F 50.0 °F 83% 30.09 in 10.0 mi WSW 8.1 mph - N/A   Clear
11:53 PM 53.1 °F 50.0 °F 89% 30.09 in 10.0 mi WSW 5.8 mph - N/A   Clear